CW1100 Weather Reports


time (UTC)temp
C
wind
direction
speed
KPH
gust
KPH
rain 1hr
cm
rain 24hr
cm
rain mn
cm
humidity
%
barometer
mb
20260504034505 8 354 22.5 35.4 0.00 0.00 0.00 55 1011.5
20260504033505 8 1 25.7 37.0 0.00 0.00 0.00 53 1011.2
20260504033006 8 4 22.5 35.4 0.00 0.00 0.00 53 1011.2
20260504032505 8 2 22.5 41.8 0.00 0.00 0.00 53 1011.1
20260504032005 8 23 25.7 46.7 0.00 0.00 0.00 52 1011.1
20260504031505 9 3 29.0 46.7 0.00 0.00 0.00 51 1011.2
20260504031005 9 359 27.4 51.5 0.00 0.00 0.00 50 1011.1
20260504030505 10 1 27.4 56.3 0.00 0.00 0.00 49 1011.1
20260504030005 10 16 27.4 61.2 0.00 0.00 0.00 50 1010.9
20260504025505 10 1 38.6 61.2 0.00 0.00 0.00 49 1010.8
20260504025005 11 5 35.4 61.2 0.00 0.00 0.00 48 1010.7
20260504024505 11 7 38.6 56.3 0.00 0.00 0.00 48 1010.4
20260504024005 11 28 25.7 56.3 0.00 0.00 0.00 47 1010.2
20260504023505 11 23 32.2 56.3 0.00 0.00 0.00 45 1010.0
20260504023005 12 13 29.0 56.3 0.00 0.00 0.00 43 1010.0
20260504022505 12 3 35.4 56.3 0.00 0.00 0.00 39 1010.0
20260504021505 13 337 30.6 57.9 0.00 0.00 0.00 37 1009.3
20260504021005 13 343 33.8 56.3 0.00 0.00 0.00 37 1009.3
20260504020504 13 357 32.2 51.5 0.00 0.00 0.00 38 1009.1
20260504015505 13 348 30.6 48.3 0.00 0.00 0.00 39 1009.0
20260504015005 13 349 27.4 49.9 0.00 0.00 0.00 40 1008.9
20260504014505 13 339 29.0 49.9 0.00 0.00 0.00 39 1008.8
20260504014005 13 348 27.4 41.8 0.00 0.00 0.00 39 1008.7
20260504013005 13 2 25.7 40.2 0.00 0.00 0.00 39 1008.6
20260504012505 13 353 25.7 49.9 0.00 0.00 0.00 38 1008.5
20260504011505 14 359 29.0 49.9 0.00 0.00 0.00 38 1008.3
20260504010505 14 355 33.8 53.1 0.00 0.00 0.00 38 1008.2
20260504010005 14 353 35.4 53.1 0.00 0.00 0.00 37 1008.2
20260504005505 14 355 25.7 56.3 0.00 0.00 0.00 37 1008.1
20260504005005 14 355 29.0 56.3 0.00 0.00 0.00 38 1008.1
20260504004505 15 348 30.6 51.5 0.00 0.00 0.00 38 1008.1
20260504004005 15 3 30.6 48.3 0.00 0.00 0.00 38 1008.0
20260504003505 15 358 27.4 48.3 0.00 0.00 0.00 39 1008.1
20260504003005 15 8 27.4 51.5 0.00 0.00 0.00 38 1008.1
20260504002505 15 358 29.0 51.5 0.00 0.00 0.00 37 1008.0
20260504002004 15 5 30.6 51.5 0.00 0.00 0.00 37 1007.8
20260504001504 15 13 35.4 51.5 0.00 0.00 0.00 36 1007.7
20260504001005 15 0 25.7 57.9 0.00 0.00 0.00 35 1007.7
20260504000505 15 351 29.0 66.0 0.00 0.00 0.00 34 1007.8
20260504000006 15 18 33.8 66.0 0.00 0.00 0.00 34 1007.7
20260503235505 16 5 32.2 46.7 0.00 0.00 0.00 38 1007.5
20260503235006 16 358 30.6 48.3 0.00 0.00 0.00 39 1007.5
20260503234505 16 344 33.8 48.3 0.00 0.00 0.00 39 1007.4
20260503234005 16 358 30.6 41.8 0.00 0.00 0.00 39 1007.4
20260503233005 16 11 25.7 51.5 0.00 0.00 0.00 38 1007.4
20260503232505 17 24 29.0 62.8 0.00 0.00 0.00 37 1007.5
20260503232005 17 0 27.4 62.8 0.00 0.00 0.00 35 1007.3
20260503231005 17 350 37.0 64.4 0.00 0.00 0.00 33 1007.2
20260503230505 17 354 41.8 64.4 0.00 0.00 0.00 33 1007.0
20260503230006 17 357 33.8 61.2 0.00 0.00 0.00 33 1007.0
20260503224504 17 350 30.6 56.3 0.00 0.00 0.00 37 1007.1
20260503224005 17 0 38.6 57.9 0.00 0.00 0.00 37 1006.9
20260503223505 18 8 32.2 57.9 0.00 0.00 0.00 35 1006.7
20260503223005 20 353 35.4 53.1 0.00 0.00 0.00 30 1006.7
20260503222505 21 306 20.9 48.3 0.00 0.00 0.00 29 1006.1
20260503222005 21 310 22.5 48.3 0.00 0.00 0.00 29 1006.0
20260503221005 21 308 24.1 48.3 0.00 0.00 0.00 28 1006.1
20260503220505 21 316 25.7 48.3 0.00 0.00 0.00 28 1006.1
20260503215505 21 311 16.1 45.1 0.00 0.00 0.00 29 1006.2
20260503214505 21 321 22.5 38.6 0.00 0.00 0.00 27 1006.3
20260503214006 21 326 20.9 38.6 0.00 0.00 0.00 28 1006.4
20260503212005 21 304 25.7 45.1 0.00 0.00 0.00 26 1006.7
20260503211505 21 323 16.1 37.0 0.00 0.00 0.00 28 1006.8
20260503211005 21 293 17.7 41.8 0.00 0.00 0.00 29 1006.9
20260503210505 21 322 22.5 41.8 0.00 0.00 0.00 29 1007.0
20260503210006 21 309 20.9 41.8 0.00 0.00 0.00 29 1007.1
20260503205505 21 309 22.5 35.4 0.00 0.00 0.00 30 1007.1
20260503205005 20 293 14.5 37.0 0.00 0.00 0.00 30 1007.2
20260503204506 21 298 22.5 37.0 0.00 0.00 0.00 30 1007.3
20260503204006 21 317 14.5 32.2 0.00 0.00 0.00 31 1007.4
20260503203506 21 336 14.5 32.2 0.00 0.00 0.00 31 1007.4
20260503202505 21 351 14.5 33.8 0.00 0.00 0.00 31 1007.5
20260503202005 21 343 20.9 38.6 0.00 0.00 0.00 31 1007.5
20260503201506 20 352 19.3 38.6 0.00 0.00 0.00 32 1007.6
20260503201005 20 345 20.9 38.6 0.00 0.00 0.00 31 1007.7
20260503200506 21 347 14.5 41.8 0.00 0.00 0.00 32 1007.7
20260503200006 21 321 17.7 41.8 0.00 0.00 0.00 30 1007.8
20260503195006 21 326 22.5 37.0 0.00 0.00 0.00 30 1008.0
20260503194505 21 342 16.1 37.0 0.00 0.00 0.00 30 1008.1
20260503194005 21 314 20.9 41.8 0.00 0.00 0.00 31 1008.2
20260503193005 21 329 29.0 46.7 0.00 0.00 0.00 30 1008.2
20260503192005 21 311 14.5 32.2 0.00 0.00 0.00 31 1008.4
20260503191505 21 322 20.9 35.4 0.00 0.00 0.00 29 1008.5
20260503191006 21 334 16.1 37.0 0.00 0.00 0.00 30 1008.6
20260503190505 21 335 17.7 37.0 0.00 0.00 0.00 30 1008.8
20260503190005 21 343 14.5 32.2 0.00 0.00 0.00 30 1009.0
20260503185505 21 296 19.3 35.4 0.00 0.00 0.00 30 1009.0
20260503185006 21 306 17.7 35.4 0.00 0.00 0.00 31 1009.1
20260503184505 21 292 16.1 35.4 0.00 0.00 0.00 30 1009.2
20260503184005 21 281 19.3 35.4 0.00 0.00 0.00 29 1009.1
20260503183505 21 276 16.1 35.4 0.00 0.00 0.00 30 1009.2
20260503183005 21 282 20.9 38.6 0.00 0.00 0.00 30 1009.4
20260503182505 21 282 17.7 41.8 0.00 0.00 0.00 33 1009.5
20260503182006 21 297 20.9 41.8 0.00 0.00 0.00 32 1009.6
20260503181506 21 315 25.7 41.8 0.00 0.00 0.00 32 1009.7
20260503181005 21 309 22.5 41.8 0.00 0.00 0.00 34 1009.6
20260503180505 21 290 27.4 57.9 0.00 0.00 0.00 35 1009.7
20260503180006 21 275 22.5 57.9 0.00 0.00 0.00 35 1009.8
20260503175505 21 294 25.7 57.9 0.00 0.00 0.00 36 1009.9
20260503174505 21 286 25.7 53.1 0.00 0.00 0.00 37 1010.0
20260503174006 21 301 27.4 53.1 0.00 0.00 0.00 36 1010.1
20260503173004 21 274 19.3 48.3 0.00 0.00 0.00 38 1010.3
20260503172505 21 273 25.7 48.3 0.00 0.00 0.00 36 1010.4
20260503172006 21 286 20.9 41.8 0.00 0.00 0.00 36 1010.4
20260503171505 21 272 20.9 41.8 0.00 0.00 0.00 37 1010.5
20260503171006 21 275 25.7 41.8 0.00 0.00 0.00 36 1010.5
20260503170505 21 263 27.4 41.8 0.00 0.00 0.00 35 1010.5
20260503151006 17 249 25.7 48.3 0.00 0.00 0.00 39 1012.9
20260503150505 17 261 22.5 38.6 0.00 0.00 0.00 39 1013.0
20260503131005 7 245 8.0 16.1 0.00 0.00 0.00 67 1015.3
20260503130505 6 238 9.7 16.1 0.00 0.00 0.00 68 1015.4
20260503110505 5 246 9.7 19.3 0.00 0.00 0.00 71 1016.2
20260503090505 5 245 4.8 14.5 0.00 0.00 0.00 68 1017.7
20260503081004 6 244 8.0 12.9 0.00 0.00 0.00 65 1018.2
20260503071505 6 247 6.4 11.3 0.00 0.00 0.00 63 1018.7
20260503070504 6 247 4.8 11.3 0.00 0.00 0.00 62 1018.7
20260503055004 7 231 4.8 8.0 0.00 0.00 0.00 55 1019.2
20260503054504 7 228 3.2 9.7 0.00 0.00 0.00 56 1019.1
20260503054004 7 217 4.8 9.7 0.00 0.00 0.00 56 1019.1
20260503053504 7 218 4.8 9.7 0.00 0.00 0.00 56 1019.1
20260503053004 8 216 4.8 9.7 0.00 0.00 0.00 55 1019.1
20260503052005 8 216 4.8 11.3 0.00 0.00 0.00 55 1019.2
20260503050504 8 225 4.8 8.0 0.00 0.00 0.00 55 1019.3
20260503050005 8 232 4.8 8.0 0.00 0.00 0.00 55 1019.2
20260503045004 8 229 3.2 8.0 0.00 0.00 0.00 55 1019.2
20260503044504 9 213 4.8 9.7 0.00 0.00 0.00 55 1019.3
20260503044005 9 224 4.8 11.3 0.00 0.00 0.00 54 1019.3
20260503043504 9 229 8.0 11.3 0.00 0.00 0.00 55 1019.3
20260503042504 10 223 3.2 8.0 0.00 0.00 0.00 54 1019.3
20260503042005 10 216 3.2 8.0 0.00 0.00 0.00 53 1019.3
20260503041505 10 219 4.8 8.0 0.00 0.00 0.00 53 1019.4
20260503041008 10 212 3.2 4.8 0.00 0.00 0.00 54 1019.4
20260503040507 10 220 3.2 4.8 0.00 0.00 0.00 53 1019.4
20260503040008 10 221 3.2 4.8 0.00 0.00 0.00 53 1019.5
20260503035508 10 221 3.2 4.8 0.00 0.00 0.00 53 1019.5
20260503035009 10 218 3.2 4.8 0.00 0.00 0.00 53 1019.6